Change the Weather History Date:

Friday, January 17, 2014

  Actual Average (KFSM) Record (KFSM)
Temperature  
Mean Temperature 37 °F -  
Max Temperature 46 °F 48 °F 73 °F (1952)
Min Temperature 28 °F 28 °F -6 °F (1930)
Degree Days  
Heating Degree Days 28    
Moisture  
Dew Point 10 °F    
Average Humidity 35    
Maximum Humidity 69    
Minimum Humidity 17    
Precipitation  
Precipitation 0.00 in - - ()
Sea Level Pressure  
Sea Level Pressure 30.19 in    
Wind  
Wind Speed 12 mph (WNW)    
Max Wind Speed 24 mph    
Max Gust Speed 32 mph    
Visibility 10 miles    
Events      
Averages and records for this station are not official NWS values.
T = Trace of Precipitation, MM = Missing Value Source: NWS Daily Summary

Daily Weather History Graph

Daily Weather History Graph

Search for Another Location

Airport or City:

Trip Planner

Search our weather history database for the weather conditions in past years. The results will help you decide how hot, cold, wet, or windy it might be!

Date:

Astronomy

Jan. 17, 2014 Rise Set
Actual Time 7:22 AM CST 5:31 PM CST
Civil Twilight 6:55 AM CST 5:58 PM CST
Nautical Twilight 6:24 AM CST 6:29 PM CST
Astronomical Twilight 5:54 AM CST 6:59 PM CST
Moon 7:12 PM CST (1/17) 7:56 AM CST (1/17)
Length of Visible Light 11h 03m
Length of Day
10h 08m
Full, 98% of the Moon is Illuminated
Jan 17
Full
Jan 23
Last Quarter
Jan 30
New
Feb 6
First Quarter
Feb 14
Full

Hourly Weather History & Observations

Time (CST) Temp. Windchill Dew Point Humidity Pressure Visibility Wind Dir Wind Speed Gust Speed Precip Events Conditions
12:15 AM 46.4 °F 41.1 °F 10.4 °F 23% 30.08 in 10.0 mi WNW 11.5 mph 18.4 mph N/A   Clear
12:35 AM 46.4 °F 41.1 °F 10.4 °F 23% 30.09 in 10.0 mi WNW 11.5 mph 18.4 mph N/A   Clear
12:55 AM 44.6 °F 38.4 °F 10.4 °F 25% 30.08 in 10.0 mi WNW 12.7 mph 19.6 mph N/A   Clear
1:15 AM 44.6 °F 38.1 °F 8.6 °F 23% 30.09 in 10.0 mi WNW 13.8 mph 27.6 mph N/A   Clear
1:35 AM 44.6 °F 38.8 °F 10.4 °F 25% 30.09 in 10.0 mi WNW 11.5 mph 21.9 mph N/A   Clear
1:55 AM 42.8 °F 35.8 °F 12.2 °F 29% 30.10 in 10.0 mi WNW 13.8 mph 25.3 mph N/A   Clear
2:15 AM 42.8 °F 34.5 °F 10.4 °F 27% 30.11 in 10.0 mi WNW 18.4 mph 27.6 mph N/A   Clear
2:35 AM 42.8 °F 34.5 °F 10.4 °F 27% 30.11 in 10.0 mi WNW 18.4 mph 32.2 mph N/A   Clear
2:55 AM 41.0 °F 33.1 °F 12.2 °F 31% 30.12 in 10.0 mi WNW 15.0 mph 21.9 mph N/A   Clear
3:15 AM 41.0 °F 32.8 °F 12.2 °F 31% 30.13 in 10.0 mi WNW 16.1 mph 24.2 mph N/A   Clear
3:35 AM 41.0 °F 33.9 °F 10.4 °F 29% 30.14 in 10.0 mi WNW 12.7 mph 28.8 mph N/A   Clear
3:55 AM 39.2 °F 29.8 °F 12.2 °F 33% 30.15 in 10.0 mi WNW 18.4 mph 23.0 mph N/A   Clear
4:15 AM 37.4 °F 29.3 °F 12.2 °F 36% 30.15 in 10.0 mi WNW 12.7 mph 18.4 mph N/A   Clear
4:35 AM 37.4 °F 28.9 °F 12.2 °F 36% 30.15 in 10.0 mi WNW 13.8 mph 23.0 mph N/A   Clear
4:55 AM 37.4 °F 28.2 °F 12.2 °F 36% 30.16 in 10.0 mi NW 16.1 mph 23.0 mph N/A   Clear
5:15 AM 37.4 °F 27.8 °F 12.2 °F 36% 30.16 in 10.0 mi WNW 17.3 mph 25.3 mph N/A   Clear
5:35 AM 35.6 °F 26.2 °F 14.0 °F 41% 30.17 in 10.0 mi NW 15.0 mph 26.5 mph N/A   Clear
5:55 AM 35.6 °F 25.9 °F 12.2 °F 38% 30.17 in 10.0 mi WNW 16.1 mph 25.3 mph N/A   Clear
6:15 AM 35.6 °F 26.2 °F 12.2 °F 38% 30.18 in 10.0 mi WNW 15.0 mph 27.6 mph N/A   Clear
6:35 AM 33.8 °F 24.8 °F 10.4 °F 38% 30.19 in 10.0 mi WNW 12.7 mph 17.3 mph N/A   Clear
6:55 AM 33.8 °F 25.8 °F 8.6 °F 35% 30.20 in 10.0 mi WNW 10.4 mph 18.4 mph N/A   Clear
7:15 AM 33.8 °F 25.8 °F 10.4 °F 38% 30.20 in 10.0 mi WNW 10.4 mph 17.3 mph N/A   Clear
7:35 AM 33.8 °F 24.3 °F 10.4 °F 38% 30.20 in 10.0 mi WNW 13.8 mph 21.9 mph N/A   Clear
7:55 AM 33.8 °F 24.3 °F 10.4 °F 38% 30.21 in 10.0 mi WNW 13.8 mph 20.7 mph N/A   Clear
8:15 AM 33.8 °F 23.9 °F 8.6 °F 35% 30.21 in 10.0 mi WNW 15.0 mph 24.2 mph N/A   Clear
8:35 AM 33.8 °F 24.3 °F 8.6 °F 35% 30.21 in 10.0 mi WNW 13.8 mph 24.2 mph N/A   Clear
8:55 AM 35.6 °F 25.5 °F 10.4 °F 35% 30.22 in 10.0 mi WNW 17.3 mph 23.0 mph N/A   Clear
9:15 AM 35.6 °F 25.5 °F 6.8 °F 30% 30.23 in 10.0 mi WNW 17.3 mph 21.9 mph N/A   Clear
9:35 AM 35.6 °F 26.2 °F 5.0 °F 28% 30.23 in 10.0 mi WNW 15.0 mph 26.5 mph N/A   Clear
9:55 AM 37.4 °F 29.3 °F 3.2 °F 24% 30.24 in 10.0 mi WNW 12.7 mph 23.0 mph N/A   Clear
10:15 AM 37.4 °F 28.5 °F 3.2 °F 24% 30.25 in 10.0 mi WNW 15.0 mph 23.0 mph N/A   Clear
10:35 AM 37.4 °F 27.8 °F 3.2 °F 24% 30.25 in 10.0 mi NW 17.3 mph 24.2 mph N/A   Clear
10:55 AM 37.4 °F 28.2 °F 5.0 °F 26% 30.25 in 10.0 mi WNW 16.1 mph 26.5 mph N/A   Clear
11:15 AM 39.2 °F 30.5 °F 3.2 °F 22% 30.25 in 10.0 mi NW 16.1 mph 28.8 mph N/A   Clear
11:35 AM 41.0 °F 31.9 °F -0.4 °F 18% 30.24 in 10.0 mi WNW 19.6 mph 26.5 mph N/A   Clear
11:55 AM 41.0 °F 34.3 °F 3.2 °F 21% 30.23 in 10.0 mi West 11.5 mph 19.6 mph N/A   Clear
12:15 PM 41.0 °F 32.5 °F 3.2 °F 21% 30.22 in 10.0 mi WNW 17.3 mph 24.2 mph N/A   Clear
12:35 PM 42.8 °F 35.1 °F 3.2 °F 19% 30.21 in 10.0 mi WNW 16.1 mph 21.9 mph N/A   Clear
12:55 PM 42.8 °F 35.8 °F 5.0 °F 21% 30.20 in 10.0 mi WNW 13.8 mph 23.0 mph N/A   Clear
1:15 PM 42.8 °F 33.3 °F 1.4 °F 18% 30.20 in 10.0 mi WNW 24.2 mph 27.6 mph N/A   Clear
1:35 PM 44.6 °F 36.9 °F 3.2 °F 18% 30.20 in 10.0 mi WNW 18.4 mph 25.3 mph N/A   Clear
1:55 PM 44.6 °F 37.8 °F 3.2 °F 18% 30.20 in 10.0 mi WNW 15.0 mph 26.5 mph N/A   Clear
2:15 PM 44.6 °F 36.9 °F 3.2 °F 18% 30.20 in 10.0 mi West 18.4 mph 21.9 mph N/A   Clear
2:35 PM 44.6 °F 38.1 °F 1.4 °F 17% 30.19 in 10.0 mi NW 13.8 mph 19.6 mph N/A   Clear
2:55 PM 44.6 °F 36.6 °F 3.2 °F 18% 30.19 in 10.0 mi West 19.6 mph 25.3 mph N/A   Clear
3:15 PM 44.6 °F 38.8 °F 3.2 °F 18% 30.20 in 10.0 mi West 11.5 mph 16.1 mph N/A   Clear
3:35 PM 44.6 °F 38.4 °F 3.2 °F 18% 30.20 in 10.0 mi NW 12.7 mph 16.1 mph N/A   Clear
3:55 PM 44.6 °F 38.4 °F 5.0 °F 20% 30.20 in 10.0 mi NW 12.7 mph 20.7 mph N/A   Clear
4:15 PM 44.6 °F 38.1 °F 8.6 °F 23% 30.20 in 10.0 mi WNW 13.8 mph 18.4 mph N/A   Clear
4:35 PM 44.6 °F 37.8 °F 8.6 °F 23% 30.21 in 10.0 mi West 15.0 mph - N/A   Clear
4:55 PM 42.8 °F 37.5 °F 10.4 °F 27% 30.21 in 10.0 mi WNW 9.2 mph 16.1 mph N/A   Clear
5:15 PM 41.0 °F 37.1 °F 12.2 °F 31% 30.21 in 10.0 mi WNW 5.8 mph - N/A   Clear
5:35 PM 37.4 °F 33.8 °F 12.2 °F 36% 30.21 in 10.0 mi West 4.6 mph - N/A   Clear
5:55 PM 37.4 °F - 12.2 °F 36% 30.21 in 10.0 mi Calm Calm - N/A   Clear
6:15 PM 35.6 °F - 14.0 °F 41% 30.21 in 10.0 mi Calm Calm - N/A   Clear
6:35 PM 35.6 °F 31.7 °F 12.2 °F 38% 30.21 in 10.0 mi WSW 4.6 mph - N/A   Clear
6:55 PM 32.0 °F 27.5 °F 15.8 °F 51% 30.21 in 10.0 mi WSW 4.6 mph - N/A   Clear
7:15 PM 32.0 °F 28.7 °F 17.6 °F 55% 30.21 in 10.0 mi West 3.5 mph - N/A   Clear
7:35 PM 33.8 °F 29.6 °F 14.0 °F 44% 30.20 in 10.0 mi WSW 4.6 mph - N/A   Clear
7:55 PM 32.0 °F 28.7 °F 15.8 °F 51% 30.20 in 10.0 mi SSW 3.5 mph - N/A   Clear
8:15 PM 32.0 °F - 17.6 °F 55% 30.20 in 10.0 mi Calm Calm - N/A   Clear
8:35 PM 30.2 °F 26.7 °F 17.6 °F 60% 30.20 in 10.0 mi West 3.5 mph - N/A   Clear
8:55 PM 30.2 °F 24.3 °F 17.6 °F 60% 30.21 in 10.0 mi West 5.8 mph - N/A   Clear
9:15 PM 32.0 °F 26.4 °F 17.6 °F 55% 30.21 in 10.0 mi West 5.8 mph - N/A   Clear
9:35 PM 32.0 °F 27.5 °F 15.8 °F 51% 30.21 in 10.0 mi West 4.6 mph - N/A   Clear
9:55 PM 28.4 °F - 19.4 °F 69% 30.20 in 10.0 mi Calm Calm - N/A   Clear
10:15 PM 28.4 °F - 19.4 °F 69% 30.20 in 10.0 mi Calm Calm - N/A   Clear
10:35 PM 28.4 °F - 19.4 °F 69% 30.19 in 10.0 mi Calm Calm - N/A   Clear
10:55 PM 30.2 °F - 17.6 °F 60% 30.19 in 10.0 mi Calm Calm - N/A   Clear
11:15 PM 28.4 °F - 17.6 °F 64% 30.18 in 10.0 mi Calm Calm - N/A   Clear
11:35 PM 28.4 °F - 17.6 °F 64% 30.18 in 10.0 mi Calm Calm - N/A   Clear
11:55 PM 28.4 °F - 19.4 °F 69% 30.17 in 10.0 mi Calm Calm - N/A   Clear